Location: St. Louis
(38.6270°N, 90.1994°W)
Time: 20:25:08
(UTC-06:00)

Vanguard 1 - Pass Details

Date: 06 December 2021
Orbit: 652 x 3830 km, 34.2° (Epoch: 21 January)

Event Time Altitude Azimuth Distance (km) Brightness Sun altitude
Rises 21:25:04 0° 217° (SW) 6,147 14.3 -54.9°
Reaches altitude 10° 21:28:49 10° 211° (SSW) 5,501 13.9 -55.6°
Enters shadow 21:34:04 25° 199° (SSW) 4,780 13.4 -56.5°
